Time,TemperatureF,DewpointF,PressureIn,WindDirection,WindDirectionDegrees,WindSpeedMPH,WindSpeedGustMPH,Humidity,HourlyPrecipIn,Conditions,Clouds,dailyrainin,SoftwareType,DateUTC
2013-12-17 00:02:00,14.0,8.4,30.20,NNW,335,0.0,0.0,78,0.00,,,0.00,meteobridge,2013-12-17 05:02:00,
2013-12-17 00:04:00,14.0,8.4,30.20,North,11,0.9,0.9,78,0.00,,,0.00,meteobridge,2013-12-17 05:04:00,
2013-12-17 00:06:00,14.2,8.6,30.19,NNE,13,0.0,0.9,78,0.00,,,0.00,meteobridge,2013-12-17 05:06:00,
2013-12-17 00:12:00,14.4,8.4,30.20,NNE,13,0.0,0.0,77,0.00,,,0.00,meteobridge,2013-12-17 05:12:00,
2013-12-17 00:14:00,14.5,8.4,30.20,NNE,13,0.0,0.0,76,0.00,,,0.00,meteobridge,2013-12-17 05:14:00,
2013-12-17 00:20:00,14.2,8.6,30.20,SW,218,0.0,0.9,78,0.00,,,0.00,meteobridge,2013-12-17 05:20:00,
2013-12-17 00:27:00,13.6,8.4,30.20,SW,218,0.0,0.0,79,0.00,,,0.00,meteobridge,2013-12-17 05:27:00,
2013-12-17 00:33:00,13.8,8.2,30.19,SW,219,0.0,0.0,78,0.00,,,0.00,meteobridge,2013-12-17 05:33:00,
2013-12-17 00:39:00,14.2,8.2,30.19,SW,218,0.0,0.0,77,0.00,,,0.00,meteobridge,2013-12-17 05:39:00,
2013-12-17 00:45:00,14.2,8.2,30.19,SW,219,0.0,0.0,77,0.00,,,0.00,meteobridge,2013-12-17 05:45:00,
2013-12-17 00:52:00,14.2,9.0,30.18,SW,218,0.0,0.0,79,0.00,,,0.00,meteobridge,2013-12-17 05:52:00,
2013-12-17 00:58:00,14.0,9.0,30.19,SW,218,0.0,0.0,80,0.00,,,0.00,meteobridge,2013-12-17 05:58:00,
2013-12-17 01:04:00,13.8,9.1,30.18,SW,218,0.0,0.0,81,0.00,,,0.00,meteobridge,2013-12-17 06:04:00,
2013-12-17 01:10:00,13.8,9.3,30.18,SW,219,0.0,0.0,82,0.00,,,0.00,meteobridge,2013-12-17 06:10:00,
2013-12-17 01:17:00,14.0,9.9,30.19,SW,218,0.0,0.0,83,0.00,,,0.00,meteobridge,2013-12-17 06:17:00,
2013-12-17 01:23:00,14.2,10.2,30.19,SW,218,0.9,0.9,84,0.00,,,0.00,meteobridge,2013-12-17 06:23:00,
2013-12-17 01:29:00,14.4,10.8,30.19,SW,218,0.0,0.0,85,0.00,,,0.00,meteobridge,2013-12-17 06:29:00,
2013-12-17 01:35:00,14.4,10.8,30.19,SW,217,0.0,0.9,85,0.00,,,0.00,meteobridge,2013-12-17 06:35:00,
2013-12-17 01:42:00,14.5,11.1,30.19,SSW,195,0.0,0.9,86,0.00,,,0.00,meteobridge,2013-12-17 06:42:00,
2013-12-17 01:48:00,14.7,11.5,30.19,SSW,195,0.0,0.0,87,0.00,,,0.00,meteobridge,2013-12-17 06:48:00,
2013-12-17 01:54:00,14.9,11.7,30.19,SSW,195,0.0,0.9,87,0.00,,,0.00,meteobridge,2013-12-17 06:54:00,
2013-12-17 02:01:00,15.1,11.8,30.19,SSW,195,0.0,0.9,87,0.00,,,0.00,meteobridge,2013-12-17 07:01:00,
2013-12-17 02:07:00,15.1,11.8,30.19,SSW,195,0.0,0.0,87,0.00,,,0.00,meteobridge,2013-12-17 07:07:00,
2013-12-17 02:13:00,15.1,11.8,30.19,SSW,195,0.0,0.0,87,0.00,,,0.00,meteobridge,2013-12-17 07:13:00,
2013-12-17 02:19:00,15.3,12.0,30.18,SSW,195,0.0,0.0,87,0.00,,,0.00,meteobridge,2013-12-17 07:19:00,
2013-12-17 02:26:00,15.4,12.0,30.18,SSW,195,0.9,0.9,86,0.00,,,0.00,meteobridge,2013-12-17 07:26:00,
2013-12-17 02:32:00,15.6,11.8,30.18,ESE,110,0.9,0.9,85,0.00,,,0.00,meteobridge,2013-12-17 07:32:00,
2013-12-17 02:38:00,16.0,12.0,30.18,ESE,120,0.9,2.0,84,0.00,,,0.00,meteobridge,2013-12-17 07:38:00,
2013-12-17 02:44:00,16.2,11.7,30.18,SE,142,0.9,2.0,82,0.00,,,0.00,meteobridge,2013-12-17 07:44:00,
2013-12-17 02:51:00,16.3,11.5,30.18,ESE,123,0.9,2.0,81,0.00,,,0.00,meteobridge,2013-12-17 07:51:00,
2013-12-17 02:57:00,16.5,11.5,30.18,SE,128,0.9,0.9,80,0.00,,,0.00,meteobridge,2013-12-17 07:57:00,
2013-12-17 03:04:00,16.7,10.8,30.18,ESE,115,0.9,2.0,77,0.00,,,0.00,meteobridge,2013-12-17 08:04:00,
2013-12-17 03:10:00,17.1,10.8,30.18,SE,136,0.9,2.9,76,0.00,,,0.00,meteobridge,2013-12-17 08:10:00,
2013-12-17 03:16:00,17.2,10.4,30.18,SE,132,2.0,2.0,74,0.00,,,0.00,meteobridge,2013-12-17 08:16:00,
2013-12-17 03:22:00,17.2,10.0,30.17,ESE,113,2.0,2.9,73,0.00,,,0.00,meteobridge,2013-12-17 08:22:00,
2013-12-17 03:29:00,17.4,9.9,30.17,ESE,113,2.9,2.9,72,0.00,,,0.00,meteobridge,2013-12-17 08:29:00,
2013-12-17 03:35:00,17.6,9.9,30.17,ESE,117,2.9,2.9,71,0.00,,,0.00,meteobridge,2013-12-17 08:35:00,
2013-12-17 03:41:00,17.6,9.9,30.17,SE,131,2.0,2.0,71,0.00,,,0.00,meteobridge,2013-12-17 08:41:00,
2013-12-17 03:48:00,17.8,10.0,30.16,ESE,120,2.9,2.9,71,0.00,,,0.00,meteobridge,2013-12-17 08:48:00,
2013-12-17 03:54:00,18.0,9.9,30.17,South,178,0.9,2.0,70,0.00,,,0.00,meteobridge,2013-12-17 08:54:00,
2013-12-17 04:00:00,18.0,9.9,30.16,SE,146,2.0,2.9,70,0.00,,,0.00,meteobridge,2013-12-17 09:00:00,
2013-12-17 04:06:00,18.0,9.9,30.16,SE,136,0.9,2.0,70,0.00,,,0.00,meteobridge,2013-12-17 09:06:00,
2013-12-17 04:12:00,18.0,9.9,30.15,SE,131,2.0,2.9,70,0.00,,,0.00,meteobridge,2013-12-17 09:12:00,
2013-12-17 04:18:00,18.0,9.9,30.15,ESE,121,4.0,4.0,70,0.00,,,0.00,meteobridge,2013-12-17 09:18:00,
2013-12-17 04:25:00,18.0,9.5,30.15,ESE,111,0.9,2.9,69,0.00,,,0.00,meteobridge,2013-12-17 09:25:00,
2013-12-17 04:31:00,18.1,9.7,30.15,SE,133,0.0,2.0,69,0.00,,,0.00,meteobridge,2013-12-17 09:31:00,
2013-12-17 04:37:00,18.1,9.3,30.16,ESE,108,2.0,2.9,68,0.00,,,0.00,meteobridge,2013-12-17 09:37:00,
2013-12-17 04:43:00,18.1,9.3,30.15,SE,145,2.0,4.0,68,0.00,,,0.00,meteobridge,2013-12-17 09:43:00,
2013-12-17 04:49:00,18.1,9.3,30.15,SE,135,0.9,2.9,68,0.00,,,0.00,meteobridge,2013-12-17 09:49:00,
2013-12-17 04:55:00,18.1,9.7,30.15,SE,142,2.0,2.0,69,0.00,,,0.00,meteobridge,2013-12-17 09:55:00,
2013-12-17 05:02:00,18.0,10.2,30.15,SSW,198,0.9,2.9,71,0.00,,,0.00,meteobridge,2013-12-17 10:02:00,
2013-12-17 05:08:00,18.0,10.4,30.15,SSE,149,2.0,4.0,72,0.00,,,0.00,meteobridge,2013-12-17 10:08:00,
2013-12-17 05:14:00,17.8,10.6,30.15,SE,134,0.9,2.9,73,0.00,,,0.00,meteobridge,2013-12-17 10:14:00,
2013-12-17 05:20:00,17.4,11.1,30.15,SSE,159,2.9,4.0,76,0.00,,,0.00,meteobridge,2013-12-17 10:20:00,
2013-12-17 05:26:00,17.2,11.5,30.15,SE,134,2.9,4.0,78,0.00,,,0.00,meteobridge,2013-12-17 10:26:00,
2013-12-17 05:32:00,17.1,12.2,30.16,SE,145,0.9,2.9,81,0.00,,,0.00,meteobridge,2013-12-17 10:32:00,
2013-12-17 05:38:00,16.9,12.6,30.16,ESE,110,2.0,2.9,83,0.00,,,0.00,meteobridge,2013-12-17 10:38:00,
2013-12-17 05:44:00,16.7,12.7,30.16,SSE,148,2.0,2.9,84,0.00,,,0.00,meteobridge,2013-12-17 10:44:00,
2013-12-17 05:50:00,16.7,12.9,30.16,SE,146,2.0,4.0,85,0.00,,,0.00,meteobridge,2013-12-17 10:50:00,
2013-12-17 05:57:00,16.7,13.3,30.15,SE,143,2.0,4.0,86,0.00,,,0.00,meteobridge,2013-12-17 10:57:00,
2013-12-17 06:03:00,16.5,13.1,30.15,SE,136,4.0,4.9,86,0.00,,,0.00,meteobridge,2013-12-17 11:03:00,
2013-12-17 06:09:00,16.3,13.1,30.15,South,174,2.9,6.9,87,0.00,,,0.00,meteobridge,2013-12-17 11:09:00,
2013-12-17 06:15:00,16.3,13.1,30.16,SE,135,0.9,4.9,87,0.00,,,0.00,meteobridge,2013-12-17 11:15:00,
2013-12-17 06:21:00,16.2,13.3,30.16,SSE,155,4.0,4.0,88,0.00,,,0.00,meteobridge,2013-12-17 11:21:00,
2013-12-17 06:27:00,16.2,13.3,30.16,SSE,155,2.9,4.0,88,0.00,,,0.00,meteobridge,2013-12-17 11:27:00,
2013-12-17 06:33:00,16.2,13.5,30.16,SE,137,2.9,2.9,89,0.00,,,0.00,meteobridge,2013-12-17 11:33:00,
2013-12-17 06:40:00,16.2,13.5,30.15,ESE,111,2.9,2.9,89,0.00,,,0.00,meteobridge,2013-12-17 11:40:00,
2013-12-17 06:46:00,16.0,13.6,30.15,SE,143,2.0,4.0,90,0.00,,,0.00,meteobridge,2013-12-17 11:46:00,
2013-12-17 06:52:00,16.0,13.6,30.15,ESE,120,2.9,6.9,90,0.00,,,0.00,meteobridge,2013-12-17 11:52:00,
2013-12-17 06:58:00,16.0,13.6,30.14,SSE,163,4.0,4.9,90,0.00,,,0.00,meteobridge,2013-12-17 11:58:00,
2013-12-17 07:04:00,16.0,13.6,30.14,SE,132,6.0,8.1,90,0.00,,,0.00,meteobridge,2013-12-17 12:04:00,
2013-12-17 07:10:00,16.0,13.6,30.14,SE,143,2.9,4.0,90,0.00,,,0.00,meteobridge,2013-12-17 12:10:00,
2013-12-17 07:16:00,16.0,13.8,30.14,SE,143,4.9,8.9,91,0.00,,,0.00,meteobridge,2013-12-17 12:16:00,
2013-12-17 07:22:00,16.2,14.0,30.14,ESE,120,4.0,6.0,91,0.00,,,0.00,meteobridge,2013-12-17 12:22:00,
2013-12-17 07:28:00,16.2,14.0,30.14,SE,142,2.9,4.9,91,0.00,,,0.00,meteobridge,2013-12-17 12:28:00,
2013-12-17 07:34:00,16.2,14.0,30.14,ESE,113,2.9,2.9,91,0.00,,,0.00,meteobridge,2013-12-17 12:34:00,
2013-12-17 07:41:00,16.3,14.2,30.14,ESE,108,4.0,4.0,91,0.00,,,0.00,meteobridge,2013-12-17 12:41:00,
2013-12-17 07:47:00,16.3,14.2,30.14,ESE,123,2.0,2.9,91,0.00,,,0.00,meteobridge,2013-12-17 12:47:00,
2013-12-17 07:53:00,16.3,14.2,30.14,SE,145,2.9,4.0,91,0.00,,,0.00,meteobridge,2013-12-17 12:53:00,
2013-12-17 07:59:00,16.3,14.4,30.14,SE,142,2.0,4.0,92,0.00,,,0.00,meteobridge,2013-12-17 12:59:00,
2013-12-17 08:05:00,16.3,14.4,30.14,ESE,107,2.0,6.0,92,0.00,,,0.00,meteobridge,2013-12-17 13:05:00,
2013-12-17 08:11:00,16.5,14.5,30.14,SE,131,2.0,4.0,92,0.00,,,0.00,meteobridge,2013-12-17 13:11:00,
2013-12-17 08:17:00,16.7,14.7,30.13,ESE,108,2.0,4.0,92,0.00,,,0.00,meteobridge,2013-12-17 13:17:00,
2013-12-17 08:23:00,16.7,14.7,30.13,ESE,111,4.0,4.0,92,0.00,,,0.00,meteobridge,2013-12-17 13:23:00,
2013-12-17 08:30:00,16.9,14.9,30.12,ESE,122,2.9,4.9,92,0.00,,,0.00,meteobridge,2013-12-17 13:30:00,
2013-12-17 08:36:00,16.9,14.9,30.12,SE,128,2.0,6.9,92,0.00,,,0.00,meteobridge,2013-12-17 13:36:00,
2013-12-17 08:42:00,17.1,15.4,30.12,SE,128,4.9,4.9,93,0.00,,,0.00,meteobridge,2013-12-17 13:42:00,
2013-12-17 08:48:00,17.2,15.6,30.12,SSW,195,4.9,6.9,93,0.00,,,0.00,meteobridge,2013-12-17 13:48:00,
2013-12-17 08:54:00,17.4,15.8,30.11,East,96,4.0,4.9,93,0.00,,,0.00,meteobridge,2013-12-17 13:54:00,
2013-12-17 09:00:00,17.6,16.0,30.11,ESE,122,4.0,8.9,93,0.00,,,0.00,meteobridge,2013-12-17 14:00:00,
2013-12-17 09:06:00,17.8,16.2,30.11,SE,127,2.0,6.9,93,0.00,,,0.00,meteobridge,2013-12-17 14:06:00,
2013-12-17 09:12:00,18.0,16.3,30.11,South,176,2.9,4.9,93,0.00,,,0.00,meteobridge,2013-12-17 14:12:00,
2013-12-17 09:19:00,18.0,16.3,30.11,ESE,120,2.0,6.0,93,0.00,,,0.00,meteobridge,2013-12-17 14:19:00,
2013-12-17 09:25:00,18.1,16.5,30.11,SSE,162,4.9,6.0,93,0.00,,,0.00,meteobridge,2013-12-17 14:25:00,
2013-12-17 09:31:00,18.1,16.5,30.11,SE,128,4.9,4.9,93,0.00,,,0.00,meteobridge,2013-12-17 14:31:00,
2013-12-17 09:37:00,18.3,16.7,30.11,SE,134,2.9,4.0,93,0.00,,,0.00,meteobridge,2013-12-17 14:37:00,
2013-12-17 09:43:00,18.5,16.9,30.11,SE,131,2.9,4.0,93,0.00,,,0.00,meteobridge,2013-12-17 14:43:00,
2013-12-17 09:49:00,18.7,17.1,30.11,SE,134,2.0,4.9,93,0.00,,,0.00,meteobridge,2013-12-17 14:49:00,
2013-12-17 09:55:00,18.7,17.1,30.10,East,97,2.9,4.9,93,0.00,,,0.00,meteobridge,2013-12-17 14:55:00,
2013-12-17 10:01:00,18.7,17.1,30.10,SE,142,2.9,6.0,93,0.00,,,0.00,meteobridge,2013-12-17 15:01:00,
2013-12-17 10:07:00,18.9,17.2,30.10,East,98,6.0,6.0,93,0.00,,,0.00,meteobridge,2013-12-17 15:07:00,
2013-12-17 10:13:00,18.9,17.2,30.09,ESE,121,6.0,6.0,93,0.00,,,0.00,meteobridge,2013-12-17 15:13:00,
2013-12-17 10:19:00,19.0,17.4,30.08,SE,134,4.9,8.1,93,0.00,,,0.00,meteobridge,2013-12-17 15:19:00,
2013-12-17 10:26:00,19.0,17.4,30.08,East,100,4.9,8.9,93,0.00,,,0.00,meteobridge,2013-12-17 15:26:00,
2013-12-17 10:32:00,19.2,17.6,30.07,SE,125,2.9,6.9,93,0.00,,,0.00,meteobridge,2013-12-17 15:32:00,
2013-12-17 10:38:00,19.2,17.6,30.07,SE,138,2.9,6.0,93,0.00,,,0.00,meteobridge,2013-12-17 15:38:00,
2013-12-17 10:44:00,19.4,17.8,30.07,SE,134,4.0,6.9,93,0.00,,,0.00,meteobridge,2013-12-17 15:44:00,
2013-12-17 10:50:00,19.6,18.0,30.06,ESE,105,4.0,6.0,93,0.00,,,0.00,meteobridge,2013-12-17 15:50:00,
2013-12-17 10:56:00,19.6,18.0,30.06,SE,128,4.9,6.9,93,0.00,,,0.00,meteobridge,2013-12-17 15:56:00,
2013-12-17 11:02:00,19.8,18.1,30.06,ESE,102,2.0,4.0,93,0.00,,,0.00,meteobridge,2013-12-17 16:02:00,
2013-12-17 11:09:00,19.8,18.1,30.05,East,80,2.9,4.0,93,0.00,,,0.00,meteobridge,2013-12-17 16:09:00,
2013-12-17 11:15:00,19.8,18.1,30.04,ESE,110,4.9,4.9,93,0.00,,,0.00,meteobridge,2013-12-17 16:15:00,
2013-12-17 11:21:00,19.9,18.3,30.04,SE,135,2.0,4.9,93,0.00,,,0.00,meteobridge,2013-12-17 16:21:00,
2013-12-17 11:27:00,20.1,18.5,30.03,SSE,152,2.0,4.0,93,0.00,,,0.00,meteobridge,2013-12-17 16:27:00,
2013-12-17 11:33:00,20.3,18.7,30.03,ESE,104,2.0,2.9,93,0.00,,,0.00,meteobridge,2013-12-17 16:33:00,
2013-12-17 11:39:00,20.5,18.9,30.03,SSE,152,0.9,2.9,93,0.00,,,0.00,meteobridge,2013-12-17 16:39:00,
2013-12-17 11:45:00,20.7,19.0,30.02,ESE,117,2.9,2.9,93,0.00,,,0.00,meteobridge,2013-12-17 16:45:00,
2013-12-17 11:51:00,20.8,19.2,30.02,SE,135,2.9,2.9,93,0.00,,,0.00,meteobridge,2013-12-17 16:51:00,
2013-12-17 11:58:00,20.8,19.2,30.02,SSE,161,0.9,2.0,93,0.00,,,0.00,meteobridge,2013-12-17 16:58:00,
2013-12-17 12:04:00,21.0,19.4,30.01,ESE,112,0.0,4.0,93,0.00,,,0.00,meteobridge,2013-12-17 17:04:00,
2013-12-17 12:10:00,21.0,19.4,30.01,East,84,2.9,4.0,93,0.00,,,0.00,meteobridge,2013-12-17 17:10:00,
2013-12-17 12:16:00,21.2,19.6,30.00,SE,132,0.9,2.9,93,0.00,,,0.00,meteobridge,2013-12-17 17:16:00,
2013-12-17 12:22:00,21.4,19.8,30.00,East,92,0.9,0.9,93,0.00,,,0.00,meteobridge,2013-12-17 17:22:00,
2013-12-17 12:29:00,21.4,19.8,29.99,ESE,117,0.0,0.0,93,0.00,,,0.00,meteobridge,2013-12-17 17:29:00,
2013-12-17 12:35:00,21.6,19.9,29.99,ESE,121,0.0,0.9,93,0.00,,,0.00,meteobridge,2013-12-17 17:35:00,
2013-12-17 12:41:00,21.7,20.1,29.98,ENE,77,0.0,2.0,93,0.00,,,0.00,meteobridge,2013-12-17 17:41:00,
2013-12-17 12:47:00,21.7,20.1,29.98,East,86,0.0,0.9,93,0.00,,,0.00,meteobridge,2013-12-17 17:47:00,
2013-12-17 12:54:00,21.9,20.1,29.98,SE,128,0.0,0.0,93,0.00,,,0.00,meteobridge,2013-12-17 17:54:00,
2013-12-17 13:00:00,22.1,20.3,29.98,East,87,0.0,0.0,93,0.00,,,0.00,meteobridge,2013-12-17 18:00:00,
2013-12-17 13:06:00,22.1,20.3,29.97,East,90,0.0,0.0,93,0.00,,,0.00,meteobridge,2013-12-17 18:06:00,
2013-12-17 13:13:00,22.1,20.3,29.97,East,87,0.0,0.9,93,0.00,,,0.00,meteobridge,2013-12-17 18:13:00,
2013-12-17 13:19:00,21.4,19.2,29.97,North,6,2.9,2.9,91,0.00,,,0.00,meteobridge,2013-12-17 18:19:00,
2013-12-17 13:25:00,19.8,17.2,29.96,NNW,337,2.9,2.9,90,0.00,,,0.00,meteobridge,2013-12-17 18:25:00,
2013-12-17 13:31:00,18.9,16.3,29.96,North,9,2.0,2.9,90,0.00,,,0.00,meteobridge,2013-12-17 18:31:00,
2013-12-17 13:37:00,18.1,15.6,29.96,NNW,328,0.0,4.0,90,0.00,,,0.00,meteobridge,2013-12-17 18:37:00,
2013-12-17 13:44:00,17.8,15.3,29.97,ENE,71,0.0,2.9,90,0.00,,,0.00,meteobridge,2013-12-17 18:44:00,
2013-12-17 13:50:00,17.2,14.9,29.96,ENE,69,2.9,2.9,90,0.00,,,0.00,meteobridge,2013-12-17 18:50:00,
2013-12-17 13:56:00,16.9,14.5,29.96,ENE,68,0.9,2.9,90,0.00,,,0.00,meteobridge,2013-12-17 18:56:00,
2013-12-17 14:02:00,16.5,14.4,29.96,ENE,60,0.9,2.0,91,0.00,,,0.00,meteobridge,2013-12-17 19:02:00,
2013-12-17 14:08:00,16.3,14.2,29.96,North,6,0.9,2.0,91,0.00,,,0.00,meteobridge,2013-12-17 19:08:00,
2013-12-17 14:14:00,16.3,14.2,29.96,NNE,31,2.0,2.9,91,0.00,,,0.00,meteobridge,2013-12-17 19:14:00,
2013-12-17 14:21:00,15.8,13.6,29.96,NNW,342,0.9,2.0,91,0.00,,,0.00,meteobridge,2013-12-17 19:21:00,
2013-12-17 14:27:00,15.6,13.5,29.97,NE,40,0.9,2.9,91,0.00,,,0.00,meteobridge,2013-12-17 19:27:00,
2013-12-17 14:33:00,15.4,13.3,29.97,NNE,19,0.0,2.9,91,0.00,,,0.00,meteobridge,2013-12-17 19:33:00,
2013-12-17 14:39:00,15.1,12.9,29.97,NNE,27,2.0,2.0,91,0.00,,,0.00,meteobridge,2013-12-17 19:39:00,
2013-12-17 14:45:00,14.9,12.7,29.97,NNE,25,2.0,2.9,91,0.00,,,0.00,meteobridge,2013-12-17 19:45:00,
2013-12-17 14:51:00,14.7,12.6,29.97,NNE,16,0.9,2.9,91,0.00,,,0.00,meteobridge,2013-12-17 19:51:00,
2013-12-17 14:58:00,14.7,12.6,29.98,NNE,21,2.9,4.0,91,0.00,,,0.00,meteobridge,2013-12-17 19:58:00,
2013-12-17 15:04:00,14.7,12.6,29.98,North,4,2.0,4.0,91,0.00,,,0.00,meteobridge,2013-12-17 20:04:00,
2013-12-17 15:10:00,14.7,12.6,29.98,NW,321,2.9,2.9,91,0.00,,,0.00,meteobridge,2013-12-17 20:10:00,
2013-12-17 15:16:00,14.9,12.7,29.99,ENE,65,4.0,6.0,91,0.00,,,0.00,meteobridge,2013-12-17 20:16:00,
2013-12-17 15:22:00,15.1,12.9,29.99,North,359,0.0,2.0,91,0.00,,,0.00,meteobridge,2013-12-17 20:22:00,
2013-12-17 15:28:00,15.3,13.3,29.98,NNE,16,0.0,2.9,92,0.00,,,0.00,meteobridge,2013-12-17 20:28:00,
2013-12-17 15:34:00,15.4,13.5,29.98,NNE,21,2.9,2.9,92,0.00,,,0.00,meteobridge,2013-12-17 20:34:00,
2013-12-17 15:41:00,15.4,13.5,29.98,ENE,77,0.0,0.9,92,0.00,,,0.00,meteobridge,2013-12-17 20:41:00,
2013-12-17 15:47:00,16.0,14.0,29.97,East,83,0.9,2.9,92,0.00,,,0.00,meteobridge,2013-12-17 20:47:00,
2013-12-17 15:53:00,16.2,14.2,29.97,ENE,70,0.0,0.0,92,0.00,,,0.00,meteobridge,2013-12-17 20:53:00,
2013-12-17 16:00:00,16.3,14.4,29.96,NE,50,0.0,0.0,92,0.00,,,0.00,meteobridge,2013-12-17 21:00:00,
2013-12-17 16:06:00,16.3,14.2,29.97,North,6,4.0,4.0,91,0.00,,,0.00,meteobridge,2013-12-17 21:06:00,
2013-12-17 16:12:00,16.2,14.0,29.97,NNW,343,2.0,2.9,91,0.00,,,0.00,meteobridge,2013-12-17 21:12:00,
2013-12-17 16:18:00,16.2,14.0,29.98,North,6,2.0,2.9,91,0.00,,,0.00,meteobridge,2013-12-17 21:18:00,
2013-12-17 16:25:00,16.2,14.0,29.99,NNW,328,2.0,2.0,91,0.00,,,0.00,meteobridge,2013-12-17 21:25:00,
2013-12-17 16:31:00,16.3,14.4,29.99,North,11,4.0,4.0,92,0.00,,,0.00,meteobridge,2013-12-17 21:31:00,
2013-12-17 16:37:00,16.3,14.4,29.98,NE,47,0.9,2.9,92,0.00,,,0.00,meteobridge,2013-12-17 21:37:00,
2013-12-17 16:43:00,16.3,14.4,29.98,North,359,0.0,2.9,92,0.00,,,0.00,meteobridge,2013-12-17 21:43:00,
2013-12-17 16:49:00,16.3,14.2,29.98,NNE,25,2.0,2.9,91,0.00,,,0.00,meteobridge,2013-12-17 21:49:00,
2013-12-17 16:56:00,16.3,14.2,29.98,North,6,0.0,2.0,91,0.00,,,0.00,meteobridge,2013-12-17 21:56:00,
2013-12-17 17:02:00,16.3,14.2,29.98,NNW,342,0.0,0.9,91,0.00,,,0.00,meteobridge,2013-12-17 22:02:00,
2013-12-17 17:08:00,16.3,14.2,29.98,NW,313,0.0,0.0,91,0.00,,,0.00,meteobridge,2013-12-17 22:08:00,
2013-12-17 17:14:00,16.3,14.2,29.98,NNE,32,0.0,0.9,91,0.00,,,0.00,meteobridge,2013-12-17 22:14:00,
2013-12-17 17:16:00,16.3,14.2,29.98,NNE,23,0.9,2.0,91,0.00,,,0.00,meteobridge,2013-12-17 22:16:00,
2013-12-17 17:22:00,16.2,14.0,29.98,NNE,15,0.9,4.0,91,0.00,,,0.00,meteobridge,2013-12-17 22:22:00,
2013-12-17 17:28:00,16.0,13.8,29.97,North,11,0.0,0.0,91,0.00,,,0.00,meteobridge,2013-12-17 22:28:00,
2013-12-17 17:35:00,16.0,14.0,29.97,East,94,0.0,0.9,92,0.00,,,0.00,meteobridge,2013-12-17 22:35:00,
2013-12-17 17:41:00,16.0,14.0,29.98,WNW,294,0.0,0.9,92,0.00,,,0.00,meteobridge,2013-12-17 22:41:00,
2013-12-17 17:47:00,15.8,13.8,29.98,ENE,58,0.9,0.9,92,0.00,,,0.00,meteobridge,2013-12-17 22:47:00,
2013-12-17 17:53:00,15.6,13.6,29.98,ENE,69,0.9,0.9,92,0.00,,,0.00,meteobridge,2013-12-17 22:53:00,
2013-12-17 17:59:00,15.6,13.6,29.98,ENE,65,0.9,0.9,92,0.00,,,0.00,meteobridge,2013-12-17 22:59:00,
2013-12-17 18:06:00,15.4,13.5,29.98,NE,53,0.0,2.0,92,0.00,,,0.00,meteobridge,2013-12-17 23:06:00,
2013-12-17 18:12:00,15.3,13.3,29.98,NNE,23,0.0,0.0,92,0.00,,,0.00,meteobridge,2013-12-17 23:12:00,
2013-12-17 18:18:00,15.1,13.1,29.98,North,1,0.0,0.9,92,0.00,,,0.00,meteobridge,2013-12-17 23:18:00,
2013-12-17 18:25:00,14.7,12.7,29.99,North,1,0.0,0.9,92,0.00,,,0.00,meteobridge,2013-12-17 23:25:00,
2013-12-17 18:31:00,14.7,12.7,29.98,ENE,68,0.0,0.9,92,0.00,,,0.00,meteobridge,2013-12-17 23:31:00,
2013-12-17 18:37:00,14.5,12.6,29.99,North,359,0.0,0.0,92,0.00,,,0.00,meteobridge,2013-12-17 23:37:00,
2013-12-17 18:43:00,14.4,12.4,29.99,NW,322,0.0,0.9,92,0.00,,,0.00,meteobridge,2013-12-17 23:43:00,
2013-12-17 18:50:00,14.0,12.0,29.99,NW,322,0.0,0.0,92,0.00,,,0.00,meteobridge,2013-12-17 23:50:00,
2013-12-17 18:56:00,13.8,12.0,29.99,NNW,337,0.0,0.9,92,0.00,,,0.00,meteobridge,2013-12-17 23:56:00,
2013-12-17 19:02:00,13.8,12.2,29.99,NNW,338,0.0,0.9,93,0.00,,,0.00,meteobridge,2013-12-18 00:02:00,
2013-12-17 19:08:00,13.8,12.2,30.00,NNW,338,0.0,0.0,93,0.00,,,0.00,meteobridge,2013-12-18 00:08:00,
2013-12-17 19:14:00,13.8,12.2,29.99,North,357,0.9,0.9,93,0.00,,,0.00,meteobridge,2013-12-18 00:14:00,
2013-12-17 19:21:00,14.2,12.6,29.99,North,356,0.0,0.9,93,0.00,,,0.00,meteobridge,2013-12-18 00:21:00,
2013-12-17 19:27:00,14.4,12.7,29.99,NNE,25,0.0,2.0,93,0.00,,,0.00,meteobridge,2013-12-18 00:27:00,
2013-12-17 19:33:00,14.5,12.9,30.00,NNE,25,0.0,0.9,93,0.00,,,0.00,meteobridge,2013-12-18 00:33:00,
2013-12-17 19:39:00,14.7,13.1,29.99,North,3,0.0,0.9,93,0.00,,,0.00,meteobridge,2013-12-18 00:39:00,
2013-12-17 19:45:00,14.9,13.3,29.98,North,352,0.9,0.9,93,0.00,,,0.00,meteobridge,2013-12-18 00:45:00,
2013-12-17 19:52:00,15.1,13.5,29.98,ENE,69,0.0,0.0,93,0.00,,,0.00,meteobridge,2013-12-18 00:52:00,
2013-12-17 19:58:00,15.4,13.8,29.98,ENE,60,0.0,2.0,93,0.00,,,0.00,meteobridge,2013-12-18 00:58:00,
2013-12-17 20:04:00,15.6,14.0,29.98,NE,39,0.9,2.0,93,0.00,,,0.00,meteobridge,2013-12-18 01:04:00,
2013-12-17 20:10:00,15.8,14.2,29.98,NE,45,0.0,0.9,93,0.00,,,0.00,meteobridge,2013-12-18 01:10:00,
2013-12-17 20:17:00,16.0,14.4,29.97,ENE,61,0.9,0.9,93,0.00,,,0.00,meteobridge,2013-12-18 01:17:00,
2013-12-17 20:23:00,16.0,14.4,29.97,ENE,72,0.0,0.0,93,0.00,,,0.00,meteobridge,2013-12-18 01:23:00,
2013-12-17 20:29:00,15.6,14.0,29.97,ENE,60,0.0,0.9,93,0.00,,,0.00,meteobridge,2013-12-18 01:29:00,
2013-12-17 20:36:00,15.4,13.8,29.97,North,3,0.0,2.0,93,0.00,,,0.00,meteobridge,2013-12-18 01:36:00,
2013-12-17 20:42:00,15.1,13.5,29.97,North,8,0.9,2.0,93,0.00,,,0.00,meteobridge,2013-12-18 01:42:00,
2013-12-17 20:48:00,14.9,13.3,29.96,NE,49,0.9,2.0,93,0.00,,,0.00,meteobridge,2013-12-18 01:48:00,
2013-12-17 20:54:00,14.9,13.3,29.96,North,352,0.9,2.0,93,0.00,,,0.00,meteobridge,2013-12-18 01:54:00,
2013-12-17 21:01:00,14.7,13.1,29.96,NNW,347,0.0,2.0,93,0.00,,,0.00,meteobridge,2013-12-18 02:01:00,
2013-12-17 21:07:00,14.5,12.9,29.96,NNE,12,0.0,0.0,93,0.00,,,0.00,meteobridge,2013-12-18 02:07:00,
2013-12-17 21:13:00,14.5,12.9,29.97,North,349,0.0,0.9,93,0.00,,,0.00,meteobridge,2013-12-18 02:13:00,
2013-12-17 21:19:00,14.5,12.9,29.96,NNE,25,0.9,2.9,93,0.00,,,0.00,meteobridge,2013-12-18 02:19:00,
2013-12-17 21:26:00,14.4,12.7,29.97,North,1,0.9,2.0,93,0.00,,,0.00,meteobridge,2013-12-18 02:26:00,
2013-12-17 21:32:00,14.2,12.6,29.97,North,9,0.0,0.0,93,0.00,,,0.00,meteobridge,2013-12-18 02:32:00,
2013-12-17 21:38:00,14.2,12.6,29.97,NNE,18,0.0,0.9,93,0.00,,,0.00,meteobridge,2013-12-18 02:38:00,
2013-12-17 21:44:00,14.0,12.4,29.97,NNW,342,0.0,0.9,93,0.00,,,0.00,meteobridge,2013-12-18 02:44:00,
2013-12-17 21:50:00,13.6,12.0,29.98,NNW,344,0.9,2.0,93,0.00,,,0.00,meteobridge,2013-12-18 02:50:00,
2013-12-17 21:57:00,13.5,11.8,29.98,NNW,342,0.0,0.9,93,0.00,,,0.00,meteobridge,2013-12-18 02:57:00,
2013-12-17 22:03:00,13.5,11.8,29.97,NNW,342,0.0,0.0,93,0.00,,,0.00,meteobridge,2013-12-18 03:03:00,
2013-12-17 22:09:00,13.3,11.7,29.97,NNW,343,0.0,0.0,93,0.00,,,0.00,meteobridge,2013-12-18 03:09:00,
2013-12-17 22:15:00,13.3,11.7,29.97,NNW,342,0.0,0.0,93,0.00,,,0.00,meteobridge,2013-12-18 03:15:00,
2013-12-17 22:22:00,12.9,11.3,29.97,NNW,343,0.0,0.9,93,0.00,,,0.00,meteobridge,2013-12-18 03:22:00,
2013-12-17 22:28:00,12.7,11.1,29.96,NNW,342,0.0,0.0,93,0.00,,,0.00,meteobridge,2013-12-18 03:28:00,
2013-12-17 22:34:00,13.3,11.7,29.96,ENE,78,0.0,0.0,93,0.00,,,0.00,meteobridge,2013-12-18 03:34:00,
2013-12-17 22:40:00,13.6,12.2,29.96,ENE,77,0.0,0.0,94,0.00,,,0.00,meteobridge,2013-12-18 03:40:00,
2013-12-17 22:46:00,14.2,12.7,29.97,ENE,58,0.0,0.9,94,0.00,,,0.00,meteobridge,2013-12-18 03:46:00,
2013-12-17 22:53:00,14.7,13.3,29.97,NE,55,0.0,0.0,94,0.00,,,0.00,meteobridge,2013-12-18 03:53:00,
2013-12-17 22:59:00,14.9,13.5,29.96,ENE,68,0.0,0.9,94,0.00,,,0.00,meteobridge,2013-12-18 03:59:00,
2013-12-17 23:05:00,14.9,13.3,29.96,NNW,342,0.0,0.0,93,0.00,,,0.00,meteobridge,2013-12-18 04:05:00,
2013-12-17 23:12:00,15.1,13.5,29.96,NNW,343,0.0,0.0,93,0.00,,,0.00,meteobridge,2013-12-18 04:12:00,
2013-12-17 23:18:00,14.9,13.3,29.96,NNW,340,0.0,0.9,93,0.00,,,0.00,meteobridge,2013-12-18 04:18:00,
2013-12-17 23:24:00,14.7,13.1,29.96,NNW,330,0.0,0.9,93,0.00,,,0.00,meteobridge,2013-12-18 04:24:00,
2013-12-17 23:30:00,14.5,12.9,29.96,NNW,330,0.0,0.0,93,0.00,,,0.00,meteobridge,2013-12-18 04:30:00,
2013-12-17 23:37:00,14.5,12.9,29.96,NNW,330,0.0,0.9,93,0.00,,,0.00,meteobridge,2013-12-18 04:37:00,
2013-12-17 23:43:00,14.5,12.9,29.96,NW,322,0.0,0.0,93,0.00,,,0.00,meteobridge,2013-12-18 04:43:00,
2013-12-17 23:49:00,14.4,12.7,29.95,NW,322,0.0,0.0,93,0.00,,,0.00,meteobridge,2013-12-18 04:49:00,
2013-12-17 23:55:00,14.4,12.7,29.95,NW,322,0.0,0.0,93,0.00,,,0.00,meteobridge,2013-12-18 04:55:00,